Location: Sevilla
(37.3933°N, 5.9839°W)
Time: 05:27:02
(UTC+02:00)

Transit 2A Rocket - Pass Details

Date: 28 June 2024
Orbit: 582 x 910 km, 66.7° (Epoch: 15 July)

Event Time Altitude Azimuth Distance (km) Brightness Sun altitude
Rises 22:00:46 0° 245° (WSW) 3,113 8.7 -2.9°
Reaches altitude 10° 22:03:30 10° 260° (W) 2,257 8.2 -3.3°
Maximum altitude 22:07:34 23° 312° (NW) 1,641 8.0 -4.0°
Drops below altitude 10° 22:11:54 10° 3° (N) 2,437 8.1 -4.7°
Sets 22:15:01 0° 18° (NNE) 3,429 8.6 -5.2°
